When you browse on this site, cookies collect data to enhance your experience and personalize the content and advertising you see.
Visit our Privacy Policy to learn more. By continuing to use the site, you agree to this use of cookies and data.

Previsão horária em Darvin

Hoje, 5 Julho, Domingo

Tempo Temperatura Precipitação Vento Pressão Humidade
00:00 +24°C° 0 mm 8 m/s 761 mmHg 48%
01:00 +24°C° 0 mm 8 m/s 761 mmHg 48%
02:00 +23°C° 0 mm 8 m/s 761 mmHg 48%
03:00 +22°C° 0 mm 8 m/s 760 mmHg 49%
04:00 +21°C° 0 mm 8 m/s 760 mmHg 54%
05:00 +20°C° 0 mm 8 m/s 760 mmHg 59%
06:00 +17°C° 0 mm 8 m/s 760 mmHg 64%
07:00 +20°C° 0 mm 8 m/s 761 mmHg 57%
08:00 +22°C° 0 mm 7 m/s 761 mmHg 51%
09:00 +24°C° 0 mm 7 m/s 762 mmHg 44%
10:00 +27°C° 0 mm 6 m/s 761 mmHg 40%
11:00 +28°C° 0 mm 6 m/s 761 mmHg 37%
12:00 +30°C° 0 mm 5 m/s 760 mmHg 33%
13:00 +32°C° 0 mm 4 m/s 760 mmHg 32%
14:00 +33°C° 0 mm 4 m/s 759 mmHg 31%
15:00 +34°C° 0 mm 3 m/s 758 mmHg 30%
16:00 +31°C° 0 mm 3 m/s 758 mmHg 35%
17:00 +29°C° 0 mm 3 m/s 758 mmHg 40%
18:00 +27°C° 0 mm 2 m/s 758 mmHg 45%
19:00 +26°C° 0 mm 2 m/s 759 mmHg 44%
20:00 +25°C° 0 mm 3 m/s 759 mmHg 43%
21:00 +24°C° 0 mm 3 m/s 760 mmHg 42%
22:00 +23°C° 0 mm 4 m/s 760 mmHg 44%
23:00 +22°C° 0 mm 6 m/s 760 mmHg 46%

Amanhã, 6 Julho, Segunda-feira

Tempo Temperatura Precipitação Vento Pressão Humidade
00:00 +22°C° 0 mm 7 m/s 761 mmHg 48%
01:00 +22°C° 0 mm 7 m/s 760 mmHg 59%
02:00 +21°C° 0 mm 7 m/s 760 mmHg 69%
03:00 +20°C° 0 mm 7 m/s 760 mmHg 79%
04:00 +20°C° 0 mm 7 m/s 760 mmHg 77%
05:00 +20°C° 0 mm 7 m/s 760 mmHg 76%
06:00 +18°C° 0 mm 7 m/s 761 mmHg 74%
07:00 +21°C° 0 mm 7 m/s 761 mmHg 64%
08:00 +22°C° 0 mm 7 m/s 761 mmHg 54%
09:00 +24°C° 0 mm 7 m/s 762 mmHg 44%
10:00 +27°C° 0 mm 7 m/s 761 mmHg 37%
11:00 +29°C° 0 mm 6 m/s 761 mmHg 30%
12:00 +32°C° 0 mm 5 m/s 760 mmHg 23%
13:00 +33°C° 0 mm 5 m/s 759 mmHg 23%
14:00 +34°C° 0 mm 4 m/s 758 mmHg 23%
15:00 +35°C° 0 mm 3 m/s 758 mmHg 23%
16:00 +33°C° 0 mm 3 m/s 758 mmHg 29%
17:00 +30°C° 0 mm 3 m/s 758 mmHg 36%
18:00 +28°C° 0 mm 2 m/s 759 mmHg 42%
19:00 +26°C° 0 mm 2 m/s 759 mmHg 46%
20:00 +25°C° 0 mm 2 m/s 760 mmHg 50%
21:00 +23°C° 0 mm 2 m/s 760 mmHg 54%
22:00 +22°C° 0 mm 3 m/s 760 mmHg 52%
23:00 +22°C° 0 mm 4 m/s 760 mmHg 51%

Depois de amanhã, 7 Julho, Terça-feira

Tempo Temperatura Precipitação Vento Pressão Humidade
00:00 +21°C° 0 mm 6 m/s 760 mmHg 49%
01:00 +21°C° 0 mm 6 m/s 760 mmHg 56%
02:00 +20°C° 0 mm 6 m/s 760 mmHg 62%
03:00 +20°C° 0 mm 6 m/s 760 mmHg 69%
04:00 +19°C° 0 mm 6 m/s 760 mmHg 75%
05:00 +19°C° 0 mm 6 m/s 760 mmHg 80%
06:00 +17°C° 0 mm 6 m/s 761 mmHg 85%
07:00 +20°C° 0 mm 7 m/s 761 mmHg 75%
08:00 +22°C° 0 mm 7 m/s 761 mmHg 64%
09:00 +23°C° 0 mm 7 m/s 761 mmHg 54%
10:00 +27°C° 0 mm 6 m/s 761 mmHg 46%
11:00 +29°C° 0 mm 6 m/s 761 mmHg 37%
12:00 +32°C° 0 mm 5 m/s 760 mmHg 29%
13:00 +33°C° 0 mm 4 m/s 759 mmHg 27%
14:00 +34°C° 0 mm 4 m/s 759 mmHg 25%
15:00 +35°C° 0 mm 3 m/s 758 mmHg 24%
16:00 +31°C° 0 mm 3 m/s 758 mmHg 30%
17:00 +29°C° 0 mm 3 m/s 758 mmHg 35%
18:00 +27°C° 0 mm 3 m/s 758 mmHg 41%
19:00 +25°C° 0 mm 2 m/s 759 mmHg 48%
20:00 +24°C° 0 mm 1 m/s 759 mmHg 55%
21:00 +22°C° 0 mm 1 m/s 760 mmHg 61%
22:00 +21°C° 0 mm 2 m/s 760 mmHg 57%
23:00 +20°C° 0 mm 3 m/s 760 mmHg 52%

8 Julho, Quarta-feira

Tempo Temperatura Precipitação Vento Pressão Humidade
00:00 +20°C° 0 mm 4 m/s 760 mmHg 48%
01:00 +19°C° 0 mm 4 m/s 760 mmHg 51%
02:00 +19°C° 0 mm 4 m/s 760 mmHg 55%
03:00 +17°C° 0 mm 5 m/s 759 mmHg 59%
04:00 +17°C° 0 mm 5 m/s 760 mmHg 66%
05:00 +16°C° 0 mm 5 m/s 760 mmHg 73%
06:00 +16°C° 0 mm 5 m/s 760 mmHg 80%
07:00 +19°C° 0 mm 5 m/s 760 mmHg 74%
08:00 +21°C° 0 mm 6 m/s 760 mmHg 68%
09:00 +24°C° 0 mm 6 m/s 760 mmHg 61%
10:00 +27°C° 0 mm 6 m/s 760 mmHg 52%
11:00 +29°C° 0 mm 5 m/s 759 mmHg 42%
12:00 +33°C° 0 mm 5 m/s 759 mmHg 32%
13:00 +34°C° 0 mm 4 m/s 758 mmHg 31%
14:00 +35°C° 0 mm 3 m/s 757 mmHg 29%
15:00 +36°C° 0 mm 3 m/s 757 mmHg 28%
16:00 +32°C° 0 mm 2 m/s 757 mmHg 34%
17:00 +30°C° 0 mm 2 m/s 757 mmHg 41%
18:00 +28°C° 0 mm 2 m/s 757 mmHg 47%
19:00 +26°C° 0 mm 2 m/s 758 mmHg 53%
20:00 +25°C° 0 mm 1 m/s 758 mmHg 58%
21:00 +23°C° 0 mm 1 m/s 759 mmHg 64%
22:00 +23°C° 0 mm 2 m/s 759 mmHg 59%
23:00 +21°C° 0 mm 3 m/s 759 mmHg 54%

9 Julho, Quinta-feira

Tempo Temperatura Precipitação Vento Pressão Humidade
00:00 +20°C° 0 mm 3 m/s 759 mmHg 49%
01:00 +20°C° 0 mm 4 m/s 759 mmHg 51%
02:00 +19°C° 0 mm 4 m/s 759 mmHg 54%
03:00 +19°C° 0 mm 5 m/s 759 mmHg 57%
04:00 +17°C° 0 mm 5 m/s 759 mmHg 63%
05:00 +17°C° 0 mm 5 m/s 759 mmHg 68%
06:00 +16°C° 0 mm 5 m/s 759 mmHg 74%
07:00 +19°C° 0 mm 5 m/s 759 mmHg 70%
08:00 +22°C° 0 mm 5 m/s 760 mmHg 66%
09:00 +24°C° 0 mm 6 m/s 760 mmHg 63%
10:00 +28°C° 0 mm 5 m/s 759 mmHg 52%
11:00 +30°C° 0 mm 5 m/s 759 mmHg 42%
12:00 +34°C° 0 mm 5 m/s 758 mmHg 32%
13:00 +35°C° 0 mm 4 m/s 758 mmHg 30%
14:00 +35°C° 0 mm 4 m/s 757 mmHg 27%
15:00 +36°C° 0 mm 4 m/s 757 mmHg 25%
16:00 +34°C° 0 mm 3 m/s 757 mmHg 34%
17:00 +30°C° 0 mm 3 m/s 757 mmHg 42%
18:00 +28°C° 0 mm 2 m/s 757 mmHg 51%
19:00 +27°C° 0 mm 2 m/s 758 mmHg 56%
20:00 +25°C° 0 mm 2 m/s 758 mmHg 61%
21:00 +24°C° 0 mm 2 m/s 759 mmHg 66%
22:00 +24°C° 0 mm 2 m/s 759 mmHg 67%
23:00 +22°C° 0 mm 3 m/s 759 mmHg 68%

10 Julho, Sexta-feira

Tempo Temperatura Precipitação Vento Pressão Humidade
00:00 +21°C° 0 mm 3 m/s 759 mmHg 69%
01:00 +21°C° 0 mm 3 m/s 759 mmHg 68%
02:00 +20°C° 0 mm 4 m/s 758 mmHg 66%
03:00 +20°C° 0 mm 4 m/s 758 mmHg 64%
04:00 +19°C° 0 mm 4 m/s 758 mmHg 66%
05:00 +18°C° 0 mm 4 m/s 759 mmHg 67%
06:00 +17°C° 0 mm 5 m/s 759 mmHg 68%
07:00 +20°C° 0 mm 5 m/s 759 mmHg 61%
08:00 +22°C° 0 mm 5 m/s 759 mmHg 55%
09:00 +26°C° 0 mm 6 m/s 760 mmHg 48%
10:00 +28°C° 0 mm 5 m/s 759 mmHg 44%
11:00 +32°C° 0 mm 5 m/s 759 mmHg 40%
12:00 +35°C° 0 mm 4 m/s 758 mmHg 36%
13:00 +35°C° 0 mm 4 m/s 758 mmHg 35%
14:00 +36°C° 0 mm 3 m/s 757 mmHg 34%
15:00 +37°C° 0 mm 2 m/s 756 mmHg 33%
16:00 +35°C° 0 mm 2 m/s 757 mmHg 39%
17:00 +32°C° 0 mm 2 m/s 757 mmHg 45%
18:00 +30°C° 0 mm 2 m/s 757 mmHg 50%
19:00 +29°C° 0 mm 2 m/s 758 mmHg 55%
20:00 +27°C° 0 mm 2 m/s 758 mmHg 60%
21:00 +26°C° 0 mm 2 m/s 759 mmHg 64%
22:00 +26°C° 0 mm 3 m/s 759 mmHg 59%
23:00 +26°C° 0 mm 4 m/s 759 mmHg 54%
Mostrar mais